Change the Weather History Date:

Sunday, March 24, 2013

  Actual Average (KBJC) Record (KBJC)
Temperature  
Mean Temperature 12 °F -  
Max Temperature 26 °F 53 °F 77 °F (1998)
Min Temperature -1 °F 32 °F 9 °F (1987)
Degree Days  
Heating Degree Days 52    
Moisture  
Dew Point 9 °F    
Average Humidity 77    
Maximum Humidity 94    
Minimum Humidity 52    
Precipitation  
Precipitation 0.00 in - - ()
Sea Level Pressure  
Sea Level Pressure 30.10 in    
Wind  
Wind Speed 2 mph (ESE)    
Max Wind Speed 12 mph    
Max Gust Speed -    
Visibility 10 miles    
Events Snow    
Averages and records for this station are not official NWS values.
T = Trace of Precipitation, MM = Missing Value Source: NWS Daily Summary

Daily Weather History Graph

Daily Weather History Graph

Search for Another Location

Airport or City:

Trip Planner

Search our weather history database for the weather conditions in past years. The results will help you decide how hot, cold, wet, or windy it might be!

Date:

Astronomy

Mar. 24, 2013 Rise Set
Actual Time 6:56 AM MDT 7:16 PM MDT
Civil Twilight 6:29 AM MDT 7:43 PM MDT
Nautical Twilight 5:57 AM MDT 8:15 PM MDT
Astronomical Twilight 5:25 AM MDT 8:48 PM MDT
Moon 4:47 PM MDT (3/24) 5:08 AM MDT (3/24)
Length of Visible Light 13h 14m
Length of Day
12h 20m
Waxing Gibbous, 92% of the Moon is Illuminated
Mar 24
Waxing Gibbous
Mar 27
Full
Apr 2
Last Quarter
Apr 10
New
Apr 18
First Quarter

Hourly Weather History & Observations

Time (MDT) Temp. Windchill Dew Point Humidity Pressure Visibility Wind Dir Wind Speed Gust Speed Precip Events Conditions
12:16 AM 12.7 °F 6.7 °F 7.7 °F 80% 30.13 in 10.0 mi SSW 3.5 mph - N/A   Overcast
12:36 AM 12.7 °F 6.7 °F 7.5 °F 80% 30.13 in 10.0 mi SSW 3.5 mph - N/A   Overcast
12:56 AM 12.7 °F - 7.2 °F 78% 30.13 in 10.0 mi Calm Calm - N/A   Scattered Clouds
1:36 AM 7.7 °F - 5.0 °F 89% 30.12 in 10.0 mi Calm Calm - N/A   Clear
1:56 AM 4.6 °F - 2.5 °F 91% 30.11 in 10.0 mi Calm Calm - N/A   Clear
2:16 AM 5.5 °F - 3.6 °F 92% 30.11 in 10.0 mi Calm Calm - N/A   Clear
2:36 AM 2.3 °F - -0.2 °F 89% 30.11 in 10.0 mi Calm Calm - N/A   Clear
2:56 AM 3.2 °F - 0.5 °F 89% 30.10 in 10.0 mi Calm Calm - N/A   Clear
3:16 AM 0.9 °F - -1.8 °F 88% 30.10 in 10.0 mi Calm Calm - N/A   Clear
3:36 AM 0.9 °F - -2.2 °F 87% 30.08 in 10.0 mi Calm Calm - N/A   Clear
3:56 AM -0.6 °F -8.5 °F -3.5 °F 88% 30.08 in 10.0 mi SW 3.5 mph - N/A   Clear
4:16 AM -1.1 °F -12.9 °F -4.4 °F 86% 30.07 in 10.0 mi SSW 5.8 mph - N/A   Clear
4:36 AM -0.6 °F - -3.5 °F 88% 30.07 in 10.0 mi Calm Calm - N/A   Clear
4:56 AM 0.1 °F - -2.7 °F 88% 30.07 in 10.0 mi Calm Calm - N/A   Clear
5:16 AM -0.9 °F - -3.8 °F 88% 30.07 in 10.0 mi Calm Calm - N/A   Clear
5:36 AM -0.6 °F -8.5 °F -3.6 °F 87% 30.07 in 10.0 mi SSW 3.5 mph - N/A   Clear
5:56 AM 0.1 °F -7.7 °F -2.7 °F 88% 30.07 in 10.0 mi SSW 3.5 mph - N/A   Clear
6:16 AM -0.6 °F - -3.6 °F 87% 30.07 in 10.0 mi Calm Calm - N/A   Clear
6:36 AM -0.8 °F - -3.6 °F 88% 30.07 in 10.0 mi Calm Calm - N/A   Clear
6:56 AM -0.6 °F - -3.1 °F 89% 30.07 in 10.0 mi Calm Calm - N/A   Mostly Cloudy
7:16 AM -0.8 °F - -3.6 °F 88% 30.07 in 10.0 mi Calm Calm - N/A   Overcast
7:36 AM 1.2 °F -6.4 °F -1.5 °F 88% 30.07 in 10.0 mi WSW 3.5 mph - N/A   Mostly Cloudy
7:56 AM 1.9 °F - -0.6 °F 89% 30.07 in 10.0 mi Calm Calm - N/A   Mostly Cloudy
8:16 AM 4.8 °F -2.3 °F 2.7 °F 91% 30.07 in 10.0 mi South 3.5 mph - N/A   Overcast
8:36 AM 7.0 °F - 5.0 °F 92% 30.07 in 10.0 mi Calm Calm - N/A   Mostly Cloudy
8:56 AM 9.3 °F 1.0 °F 7.5 °F 92% 30.06 in 10.0 mi SSW 4.6 mph - N/A   Overcast
9:16 AM 11.1 °F - 9.3 °F 92% 30.07 in 10.0 mi Calm Calm - N/A   Overcast
9:36 AM 12.4 °F - 10.9 °F 94% 30.07 in 10.0 mi Calm Calm - N/A   Scattered Clouds
9:56 AM 15.4 °F - 10.8 °F 82% 30.08 in 10.0 mi Calm Calm - N/A   Clear
10:16 AM 16.7 °F 11.2 °F 10.2 °F 76% 30.08 in 10.0 mi NE 3.5 mph - N/A   Clear
10:36 AM 16.7 °F - 8.6 °F 70% 30.08 in 10.0 mi Calm Calm - N/A   Clear
10:56 AM 18.3 °F 11.5 °F 9.5 °F 68% 30.08 in 10.0 mi North 4.6 mph - N/A   Clear
11:16 AM 18.0 °F 9.8 °F 9.7 °F 70% 30.09 in 10.0 mi NE 5.8 mph - N/A   Clear
11:36 AM 18.9 °F - 10.4 °F 70% 30.09 in 10.0 mi Calm Calm - N/A   Clear
11:56 AM 20.7 °F - 11.3 °F 67% 30.08 in 10.0 mi Calm Calm - N/A   Scattered Clouds
12:16 PM 22.1 °F - 12.2 °F 66% 30.08 in 10.0 mi Calm Calm - N/A   Mostly Cloudy
12:36 PM 22.6 °F 18.0 °F 11.8 °F 63% 30.08 in 10.0 mi West 3.5 mph - N/A   Mostly Cloudy
12:56 PM 21.7 °F - 12.4 °F 67% 30.08 in 10.0 mi Calm Calm - N/A   Mostly Cloudy
1:16 PM 23.4 °F - 12.4 °F 63% 30.08 in 10.0 mi Calm Calm - N/A   Mostly Cloudy
1:36 PM 25.3 °F - 11.3 °F 55% 30.07 in 10.0 mi Calm Calm - N/A   Mostly Cloudy
1:56 PM 25.2 °F - 9.7 °F 52% 30.07 in 10.0 mi Calm Calm - N/A   Mostly Cloudy
2:16 PM 26.2 °F 22.1 °F 11.3 °F 53% 30.07 in 10.0 mi East 3.5 mph - N/A   Mostly Cloudy
2:36 PM 25.9 °F 20.3 °F 10.9 °F 53% 30.07 in 10.0 mi NNE 4.6 mph - N/A   Overcast
2:56 PM 25.2 °F 18.3 °F 11.8 °F 57% 30.06 in 10.0 mi NE 5.8 mph - N/A   Overcast
3:16 PM 25.3 °F 21.1 °F 12.4 °F 58% 30.08 in 10.0 mi East 3.5 mph - N/A   Mostly Cloudy
3:36 PM 25.5 °F - 13.5 °F 60% 30.07 in 10.0 mi Calm Calm - N/A   Overcast
3:56 PM 25.5 °F - 13.1 °F 59% 30.07 in 10.0 mi Calm Calm - N/A   Overcast
4:16 PM 24.1 °F 19.7 °F 13.3 °F 63% 30.07 in 10.0 mi SW 3.5 mph - N/A   Overcast
4:36 PM 24.8 °F - 13.5 °F 62% 30.07 in 10.0 mi Calm Calm - N/A   Overcast
4:56 PM 25.7 °F - 13.6 °F 60% 30.08 in 10.0 mi Calm Calm - N/A   Mostly Cloudy
5:16 PM 25.9 °F - 12.0 °F 56% 30.08 in 10.0 mi Calm Calm - N/A   Mostly Cloudy
5:36 PM 25.3 °F - 12.0 °F 57% 30.08 in 10.0 mi Calm Calm - N/A   Mostly Cloudy
5:56 PM 24.8 °F - 12.2 °F 59% 30.09 in 10.0 mi Calm Calm - N/A   Mostly Cloudy
6:16 PM 24.8 °F - 11.3 °F 57% 30.09 in 10.0 mi Calm Calm - N/A   Overcast
6:36 PM 24.1 °F - 12.4 °F 61% 30.10 in 10.0 mi Calm Calm - N/A   Mostly Cloudy
6:56 PM 23.4 °F - 12.9 °F 64% 30.11 in 10.0 mi Calm Calm - N/A   Overcast
7:16 PM 23.5 °F 12.4 °F 13.3 °F 65% 30.12 in 10.0 mi North 11.5 mph - N/A   Overcast
7:36 PM 24.3 °F 13.9 °F 15.3 °F 69% 30.13 in 10.0 mi North 10.4 mph - N/A   Overcast
7:56 PM 24.3 °F 18.4 °F 16.3 °F 72% 30.14 in 10.0 mi ENE 4.6 mph - N/A   Overcast
8:16 PM 23.7 °F 17.8 °F 16.9 °F 75% 30.14 in 10.0 mi East 4.6 mph - N/A   Overcast
8:36 PM 23.0 °F 15.8 °F 18.3 °F 82% 30.15 in 10.0 mi East 5.8 mph - N/A   Overcast
8:56 PM 22.8 °F 16.7 °F 19.4 °F 87% 30.16 in 10.0 mi East 4.6 mph - N/A   Overcast
9:16 PM 22.6 °F 16.5 °F 19.4 °F 87% 30.17 in 10.0 mi East 4.6 mph - N/A   Overcast
9:36 PM 22.1 °F 15.9 °F 19.9 °F 91% 30.17 in 7.0 mi ENE 4.6 mph - N/A Snow Light Snow
9:56 PM 21.2 °F 14.9 °F 19.4 °F 93% 30.18 in 10.0 mi East 4.6 mph - N/A   Overcast
10:16 PM 21.0 °F 14.6 °F 19.4 °F 93% 30.19 in 10.0 mi East 4.6 mph - N/A   Overcast
10:36 PM 20.1 °F 12.3 °F 17.8 °F 91% 30.18 in 10.0 mi ESE 5.8 mph - N/A   Overcast
10:56 PM 18.5 °F - 16.7 °F 93% 30.19 in 10.0 mi Calm Calm - N/A   Overcast
11:16 PM 18.9 °F - 17.1 °F 93% 30.19 in 10.0 mi Calm Calm - N/A   Overcast
11:36 PM 17.8 °F - 16.0 °F 93% 30.19 in 10.0 mi Calm Calm - N/A   Overcast
11:56 PM 16.0 °F - 14.4 °F 93% 30.19 in 10.0 mi Calm Calm - N/A   Overcast